This is the latest recevied weather packets stored in our database for station/object KE5AKC. If no packets are shown the sender has not sent any weather packets the latest 10 day(s).
| Time | Temp. | Humidity | Pressure | Rain* | Wind** | Luminosity | Snow |
|---|---|---|---|---|---|---|---|
| 1777819159 | 22.78° C | 48% | 1022.5 hPa | 0 mm | - | 537 W/m² | - |
| 1777818856 | 22.78° C | 47% | 1022.5 hPa | 0 mm | - | 520 W/m² | - |
| 1777818552 | 22.78° C | 49% | 1022.9 hPa | 0 mm | - | 500 W/m² | - |
| 1777818250 | 22.22° C | 52% | 1022.9 hPa | 0 mm | - | 480 W/m² | - |
| 1777817945 | 22.22° C | 52% | 1022.9 hPa | 0 mm | - | 454 W/m² | - |
| 1777817643 | 21.67° C | 55% | 1022.9 hPa | 0 mm | - | 440 W/m² | - |
| 1777817339 | 21.67° C | 56% | 1022.5 hPa | 0 mm | - | 420 W/m² | - |
| 1777817036 | 21.11° C | 57% | 1022.5 hPa | 0 mm | - | 399 W/m² | - |
| 1777816732 | 21.11° C | 58% | 1022.5 hPa | 0 mm | - | 378 W/m² | - |
| 1777816429 | 20.56° C | 61% | 1022.2 hPa | 0 mm | - | 355 W/m² | - |
| 1777816127 | 20.56° C | 61% | 1022.2 hPa | 0 mm | - | 89 W/m² | - |
| 1777815825 | 21.11° C | 63% | 1022.5 hPa | 0 mm | - | 270 W/m² | - |
| 1777815522 | 20° C | 65% | 1022.2 hPa | 0 mm | - | 237 W/m² | - |
| 1777815220 | 20° C | 66% | 1022.5 hPa | 0 mm | - | 213 W/m² | - |
| 1777814916 | 19.44° C | 72% | 1022.2 hPa | 0 mm | - | 192 W/m² | - |
| 1777814612 | 18.33° C | 78% | 1022.2 hPa | 0 mm | - | 169 W/m² | - |
| 1777814310 | 17.78° C | 93% | 1022.2 hPa | 0 mm | - | 151 W/m² | - |
| 1777814006 | 16.67° C | 95% | 1022.2 hPa | 0 mm | - | 133 W/m² | - |
| 1777813704 | 16.67° C | 96% | 1022.2 hPa | 0 mm | - | 118 W/m² | - |
| 1777813401 | 16.11° C | 97% | 1022.2 hPa | 0 mm | - | 102 W/m² | - |
| 1777813098 | 15.56° C | 97% | 1022.2 hPa | 0 mm | - | 89 W/m² | - |
| 1777812796 | 15.56° C | 98% | 1022.2 hPa | 0 mm | - | 81 W/m² | - |
| 1777812491 | 15° C | 98% | 1022.2 hPa | 0 mm | - | 73 W/m² | - |
| 1777812190 | 14.44° C | 98% | 1022.2 hPa | 0 mm | - | 66 W/m² | - |
| 1777811888 | 13.89° C | 97% | 1022.2 hPa | 0 mm | - | 59 W/m² | - |
* Rain latest hour (hover to see other rain measurements)
** Current wind speed in m/s (hover to see current wind gust speed)